Home > Weather > Søgne > Past weeks

Flag for Norway Past Weather in Søgne, Norway — Yesterday and Last 2 Weeks

Now
54 °F

Cool.


Feels Like: 54 °F
Forecast: 52 / 61 °F
Wind: 1 mph from North

Location: Oksoy Fyr

Current Time: Jun 29, 2016 at 4:10:42 AM

Latest Report: Jun 29, 2016 at 3:00 AM


Visibility: N/A

Pressure: 29.86 "Hg

Humidity: 89%

Dew Point: 51 °F

Location of SøgneLocation

Past Weather in Søgne — Graph

°F

Søgne Temperature Yesterday

Maximum temperature yesterday: 60 °F (at 4:00 PM)
Minimum temperature yesterday: 53 °F (at 5:00 AM)
Average temperature yesterday: 57 °F

High & Low Weather Summary for the Past Weeks

 TemperatureHumidityPressure
High70 °F (Jun 17, 3:00 PM)98% (Jun 24, 1:00 PM)30.19 "Hg (Jun 24, 1:00 PM)
Low51 °F (Jun 20, 4:00 AM)40% (Jun 19, 11:00 AM)29.50 "Hg (Jun 15, 6:00 AM)
Average59 °F83%29.82 "Hg
* Reported Jun 14 2:00 AM — Jun 29 2:00 AM, Søgne, Weather by CustomWeather, © 2016

Note: Actual official high and low records may vary slightly from our data, if they occured in-between our weather recording intervals... More about our weather records

Advertising

Søgne Weather History for the Previous 24 Hours

Scroll right to see more
 ConditionsComfort  
Time TempWeatherWind HumidityBarometerVisibility
2:00 AM
Wed, Jun 29
55 °FCool.1 mph85%29.88 "HgN/A
1:00 AM55 °FCool.2 mph86%29.90 "HgN/A
12:00 AM57 °FCool.3 mph78%29.90 "HgN/A
11:00 PM
Tue, Jun 28
57 °FCool.2 mph81%29.90 "HgN/A
10:00 PM58 °FCool.5 mph84%29.91 "HgN/A
9:00 PM59 °FCool.6 mph73%29.91 "HgN/A
8:00 PM59 °FCool.7 mph75%29.91 "HgN/A
7:00 PM60 °FCool.8 mph75%29.91 "HgN/A
6:00 PM59 °FCool.9 mph74%29.91 "HgN/A
5:00 PM60 °FCool.10 mph74%29.93 "HgN/A
4:00 PM60 °FCool.10 mph73%29.93 "HgN/A
3:00 PM59 °FCool.9 mph72%29.93 "HgN/A
2:00 PM58 °FCool.7 mph74%29.93 "HgN/A
1:00 PM56 °FCool.7 mph79%29.94 "HgN/A
12:00 PM59 °FCool.8 mph73%29.94 "HgN/A
11:00 AM58 °FCool.9 mph77%29.93 "HgN/A
10:00 AM58 °FCool.8 mph75%29.92 "HgN/A
9:00 AM57 °FCool.6 mph73%29.92 "HgN/A
8:00 AM55 °FCool.5 mph75%29.92 "HgN/A
7:00 AM54 °FCool.6 mph79%29.91 "HgN/A
6:00 AM53 °FCool.7 mph84%29.91 "HgN/A
5:00 AM53 °FCool.6 mph86%29.90 "HgN/A
Weather by CustomWeather, © 2016

See weather overviewHow to use our weather pages